1517234400.3,54382,10.13,73744.3,-5.11,-5.81,-5.69,0,*5B
1517234401.57,54383,10.13,73750.8,-5.11,-5.69,-5.69,0,*5C
1517234402.84,54384,10.13,73746.3,-5.11,-5.77,-5.69,0,*54
1517234404.12,54385,10.13,73746.5,-5.11,-5.77,-5.69,0,*55
1517234405.39,54386,10.13,73756.0,-5.11,-5.77,-5.65,0,*5A
1517234406.63,54387,10.13,73766.0,-5.09,-5.73,-5.65,0,*56
1517234407.9,54388,10.13,73766.5,-5.11,-5.69,-5.69,0,*57
1517234409.17,54389,10.13,73764.5,-5.11,-5.69,-5.69,0,*56
1517234410.42,54390,10.13,73760.5,-5.09,-5.61,-5.65,0,*53
1517234411.67,54391,10.13,73756.3,-5.09,-5.65,-5.61,0,*52
1517234412.94,54392,10.13,73754.8,-5.11,-5.69,-5.65,0,*50
1517234414.2,54393,10.13,73764.5,-5.09,-5.65,-5.61,0,*50
1517234415.45,54394,10.13,73714.8,-5.09,-5.65,-5.61,0,*57
1517234416.7,54395,10.13,73710.0,-5.09,-5.65,-5.61,0,*56
1517234417.95,54396,10.13,73728.5,-5.09,-5.61,-5.61,0,*51
1517234419.2,54397,10.13,73746.0,-5.09,-5.61,-5.61,0,*50
1517234420.45,54398,10.13,73740.3,-5.07,-5.61,-5.55,0,*56
1517234421.7,54399,10.13,73720.0,-5.07,-5.61,-5.55,0,*57
1517234422.95,54400,10.13,73716.5,-5.07,-5.55,-5.61,0,*50
1517234424.23,54401,10.13,73716.5,-5.07,-5.61,-5.61,0,*56
1517234425.5,54402,10.13,73720.5,-5.07,-5.61,-5.61,0,*55
1517234426.75,54403,10.13,73722.3,-5.05,-5.61,-5.61,0,*56
1517234427.98,54404,10.13,73726.3,-5.05,-5.69,-5.55,0,*5E
1517234429.26,54405,10.13,73734.8,-5.07,-5.61,-5.61,0,*52
1517234430.53,54406,10.13,73724.3,-5.07,-5.61,-5.61,0,*51
1517234431.78,54407,10.13,73722.3,-5.05,-5.61,-5.61,0,*52
1517234433.02,54408,10.13,73718.8,-5.05,-5.55,-5.61,0,*5A
1517234434.25,54409,10.13,73706.0,-5.05,-5.61,-5.55,0,*5B
1517234435.5,54410,10.13,73686.0,-5.05,-5.69,-5.61,0,*5C
1517234436.76,54411,10.13,73694.0,-5.05,-5.69,-5.61,0,*5D
1517234438.01,54412,10.13,73692.0,-5.05,-5.73,-5.61,0,*55
1517234439.26,54413,10.13,73678.0,-5.05,-5.69,-5.61,0,*5F
1517234440.52,54414,10.13,73674.8,-5.05,-5.69,-5.61,0,*58
1517234441.79,54415,10.13,73654.0,-5.03,-5.65,-5.65,0,*57
1517234443.06,54416,10.13,73662.5,-5.03,-5.65,-5.65,0,*54
1517234444.3,54417,10.13,73696.8,-5.01,-5.69,-5.65,0,*5B
1517234445.58,54418,10.13,73700.5,-5.03,-5.69,-5.65,0,*56
1517234446.85,54419,10.13,73696.3,-5.03,-5.69,-5.65,0,*57
1517234448.12,54420,10.13,73704.5,-5.03,-5.65,-5.65,0,*51
1517234449.39,54421,10.13,73712.0,-5.03,-5.65,-5.65,0,*50
1517234450.66,54422,10.13,73710.0,-5.03,-5.69,-5.65,0,*5F
1517234451.9,54423,10.13,73712.3,-5.01,-5.65,-5.65,0,*50
1517234453.18,54424,10.13,73712.3,-5.03,-5.69,-5.65,0,*59
1517234454.42,54425,10.13,73720.5,-5.01,-5.65,-5.65,0,*56
1517234455.63,54426,10.13,73718.8,-5.01,-5.55,-5.55,0,*55
1517234456.85,54427,10.13,73694.5,-5.01,-5.65,-5.55,0,*57
1517234458.08,54428,10.13,73716.0,-5.01,-5.65,-5.51,0,*5C
1517234459.3,54429,10.13,73726.8,-5.01,-5.65,-5.55,0,*59
1517234460.58,54430,10.13,73724.0,-4.97,-5.61,-5.61,0,*5C
1517234461.85,54431,10.13,73708.5,-4.97,-5.61,-5.61,0,*5D
1517234463.13,54432,10.13,73718.0,-4.97,-5.61,-5.61,0,*5E
1517234464.41,54433,10.13,73724.3,-4.97,-5.61,-5.61,0,*5F
1517234465.69,54434,10.13,73734.8,-4.97,-5.61,-5.61,0,*58
1517234466.96,54435,10.13,73712.5,-4.97,-5.65,-5.65,0,*59
1517234468.24,54436,10.13,73698.3,-4.97,-5.61,-5.61,0,*5A
1517234469.48,54437,10.13,73696.5,-4.95,-5.65,-5.65,0,*59
1517234470.73,54438,10.13,73670.8,-4.95,-5.65,-5.65,0,*56
1517234471.97,54439,10.13,73716.5,-4.95,-5.65,-5.65,0,*57
1517234473.25,54440,10.13,73742.0,-4.97,-5.65,-5.61,0,*5F
1517234474.5,54441,10.13,73740.5,-4.95,-5.65,-5.65,0,*58
1517234475.77,54442,10.13,73744.3,-4.97,-5.65,-5.65,0,*59
1517234477.05,54443,10.13,73748.5,-4.97,-5.65,-5.65,0,*58
1517234478.29,54444,10.13,73740.8,-4.95,-5.61,-5.65,0,*59
1517234479.53,54445,10.13,73742.3,-4.95,-5.61,-5.65,0,*58
1517234480.78,54446,10.13,73724.0,-4.95,-5.65,-5.61,0,*5B
1517234482.03,54447,10.13,73696.0,-4.95,-5.65,-5.73,0,*59
1517234483.27,54448,10.13,73592.8,-4.95,-5.73,-5.65,0,*56
1517234484.5,54449,10.13,73606.0,-4.95,-5.73,-5.65,0,*57
1517234485.74,54450,10.13,73658.8,-4.95,-5.73,-5.65,0,*5F
1517234486.98,54451,10.13,73650.8,-4.95,-5.73,-5.65,0,*5E
1517234488.22,54452,10.13,73640.5,-4.95,-5.73,-5.65,0,*5D
1517234489.46,54453,10.13,73656.8,-4.95,-5.73,-5.65,0,*5C
1517234490.73,54454,10.13,73688.3,-4.97,-5.77,-5.73,0,*5A
1517234491.97,54455,10.13,73730.8,-4.95,-5.73,-5.65,0,*5A
1517234493.25,54456,10.13,73724.3,-4.93,-5.61,-5.61,0,*58
1517234494.48,54457,10.13,73724.0,-4.95,-5.73,-5.77,0,*5B
1517234495.76,54458,10.13,73728.5,-4.93,-5.69,-5.69,0,*56
1517234497.04,54459,10.13,73732.5,-4.93,-5.69,-5.69,0,*57
1517234498.31,54460,10.13,73722.8,-4.93,-5.73,-5.61,0,*5E
1517234499.58,54461,10.13,73716.3,-4.93,-5.69,-5.65,0,*50
1517234500.83,54462,10.13,73716.0,-4.91,-5.73,-5.69,0,*56
1517234502.1,54463,10.13,73716.5,-4.93,-5.69,-5.69,0,*5E
1517234503.38,54464,10.13,73720.3,-4.93,-5.69,-5.69,0,*59
1517234504.62,54465,10.13,73740.5,-4.91,-5.73,-5.61,0,*59
1517234505.86,54466,10.13,73736.3,-4.91,-5.73,-5.73,0,*59
1517234507.11,54467,10.13,73730.3,-4.91,-5.69,-5.69,0,*58
1517234508.35,54468,10.13,73730.5,-4.91,-5.73,-5.69,0,*5C
1517234509.6,54469,10.13,73706.3,-4.91,-5.69,-5.69,0,*56
1517234510.88,54470,10.13,73684.5,-4.93,-5.73,-5.61,0,*5F
1517234512.15,54471,10.13,73702.3,-4.93,-5.69,-5.61,0,*55
1517234513.4,54472,10.13,73690.8,-4.91,-5.73,-5.69,0,*57
1517234514.65,54473,10.13,73698.3,-4.89,-5.55,-5.65,0,*57
1517234515.89,54474,10.13,73694.8,-4.91,-5.73,-5.69,0,*51
1517234517.14,54475,10.13,73748.3,-4.91,-5.69,-5.73,0,*50
1517234518.39,54476,10.13,73756.0,-4.91,-5.69,-5.69,0,*58
1517234519.64,54477,10.13,73758.3,-4.91,-5.69,-5.69,0,*59
1517234520.88,54478,10.13,73760.0,-4.91,-5.73,-5.69,0,*5D
1517234522.12,54479,10.13,73758.0,-4.91,-5.73,-5.69,0,*5C
1517234523.37,54480,10.13,73754.5,-4.91,-5.69,-5.69,0,*51
1517234524.65,54481,10.13,73752.5,-4.89,-5.65,-5.65,0,*59
1517234525.92,54482,10.13,73748.8,-4.89,-5.65,-5.69,0,*56
1517234527.2,54483,10.13,73742.0,-4.89,-5.65,-5.65,0,*5B
1517234528.47,54484,10.13,73738.5,-4.89,-5.69,-5.65,0,*50
1517234529.72,54485,10.13,73728.5,-4.87,-5.65,-5.65,0,*53
1517234530.97,54486,10.13,73718.5,-4.87,-5.69,-5.65,0,*5C
1517234532.22,54487,10.13,73718.5,-4.87,-5.65,-5.65,0,*51
1517234533.46,54488,10.13,73700.8,-4.87,-5.69,-5.65,0,*52
1517234534.74,54489,10.13,73684.5,-4.89,-5.69,-5.65,0,*5D
1517234535.99,54490,10.13,73714.8,-4.87,-5.69,-5.65,0,*5B
1517234537.24,54491,10.13,73718.5,-4.87,-5.65,-5.65,0,*56
1517234538.49,54492,10.13,73652.8,-4.89,-5.69,-5.55,0,*54
1517234539.74,54493,10.13,73628.0,-4.87,-5.65,-5.65,0,*54
1517234540.99,54494,10.13,73638.5,-4.87,-5.69,-5.65,0,*5F
1517234542.24,54495,10.13,73658.5,-4.87,-5.65,-5.69,0,*5E
1517234543.51,54496,10.13,73670.5,-4.89,-5.69,-5.65,0,*53
1517234544.76,54497,10.13,73624.5,-4.87,-5.65,-5.65,0,*50
1517234546.01,54498,10.13,73624.3,-4.87,-5.69,-5.69,0,*5F
1517234547.26,54499,10.13,73634.0,-4.87,-5.69,-5.69,0,*5E
1517234548.5,54500,10.13,73632.0,-4.87,-5.73,-5.69,0,*54
1517234549.74,54501,10.13,73622.3,-4.87,-5.73,-5.69,0,*55
1517234550.99,54502,10.13,73638.3,-4.87,-5.69,-5.69,0,*5D
1517234552.24,54503,10.13,73632.5,-4.87,-5.69,-5.69,0,*5C
1517234553.49,54504,10.13,73650.5,-4.87,-5.69,-5.69,0,*5B
1517234554.73,54505,10.13,73670.8,-4.87,-5.81,-5.73,0,*57
1517234555.97,54506,10.13,73638.8,-4.87,-5.73,-5.73,0,*59
1517234557.21,54507,10.13,73652.3,-4.87,-5.81,-5.73,0,*55
1517234558.45,54508,10.13,73648.3,-4.87,-5.73,-5.73,0,*57
1517234559.72,54509,10.13,73642.0,-4.89,-5.73,-5.81,0,*55
1517234560.96,54510,10.13,73650.8,-4.87,-5.73,-5.73,0,*5E
1517234562.2,54511,10.13,73660.8,-4.87,-5.73,-5.73,0,*5F
1517234563.43,54512,10.13,73656.0,-4.87,-5.73,-5.73,0,*5C
1517234564.68,54513,10.13,73666.5,-4.87,-5.73,-5.81,0,*50
1517234565.95,54514,10.13,73694.8,-4.85,-5.69,-5.69,0,*58
1517234567.23,54515,10.13,73718.5,-4.85,-5.77,-5.69,0,*56
1517234568.5,54516,10.13,73680.3,-4.85,-5.69,-5.69,0,*5A
1517234569.74,54517,10.13,73680.3,-4.87,-5.73,-5.73,0,*59
1517234570.98,54518,10.13,73690.8,-4.87,-5.73,-5.69,0,*5D
1517234572.26,54519,10.13,73692.3,-4.85,-5.69,-5.65,0,*59
1517234573.53,54520,10.13,73644.3,-4.85,-5.69,-5.65,0,*53
1517234574.81,54521,10.13,73664.5,-4.85,-5.69,-5.69,0,*5E
1517234576.08,54522,10.13,73686.3,-4.85,-5.69,-5.65,0,*51
1517234577.36,54523,10.13,73676.0,-4.85,-5.69,-5.65,0,*50
1517234578.63,54524,10.13,73694.8,-4.85,-5.69,-5.65,0,*57
1517234579.91,54525,10.13,73716.3,-4.85,-5.69,-5.65,0,*56
1517234581.18,54526,10.13,73718.8,-4.85,-5.69,-5.65,0,*55
1517234582.46,54527,10.13,73664.3,-4.85,-5.69,-5.65,0,*54
1517234583.73,54528,10.13,73674.5,-4.85,-5.69,-5.65,0,*5B
1517234585.01,54529,10.13,73696.8,-4.85,-5.69,-5.65,0,*5A
1517234586.28,54530,10.13,73688.8,-4.85,-5.69,-5.65,0,*52
1517234587.56,54531,10.13,73706.0,-4.85,-5.65,-5.65,0,*5F
1517234588.83,54532,10.13,73704.3,-4.85,-5.65,-5.65,0,*5C
1517234590.08,54533,10.13,73676.5,-4.83,-5.65,-5.65,0,*5B
1517234591.35,54534,10.13,73676.8,-4.85,-5.69,-5.65,0,*56
1517234592.63,54535,10.13,73684.0,-4.85,-5.69,-5.65,0,*57
1517234593.88,54536,10.13,73690.3,-4.83,-5.69,-5.65,0,*52
1517234595.15,54537,10.13,73662.5,-4.85,-5.69,-5.65,0,*55
1517234596.4,54538,10.13,73678.3,-4.83,-5.77,-5.65,0,*53
1517234597.65,54539,10.13,73654.8,-4.83,-5.69,-5.65,0,*5D
1517234598.89,54540,10.13,73632.8,-4.83,-5.69,-5.65,0,*53
1517234600.14,54541,10.13,73646.0,-4.83,-5.69,-5.65,0,*52
1517234601.42,54542,10.13,73642.3,-4.85,-5.69,-5.65,0,*57
1517234602.67,54543,10.13,73652.5,-4.83,-5.69,-5.65,0,*50
1517234603.91,54544,10.13,73626.0,-4.83,-5.69,-5.65,0,*57
1517234605.16,54545,10.13,73622.0,-4.83,-5.69,-5.65,0,*56
1517234606.44,54546,10.13,73640.0,-4.81,-5.65,-5.65,0,*5B
1517234607.68,54547,10.13,73670.8,-4.83,-5.69,-5.69,0,*58
1517234608.93,54548,10.13,73640.5,-4.83,-5.69,-5.69,0,*57
1517234610.18,54549,10.13,73614.5,-4.83,-5.69,-5.69,0,*56
1517234611.45,54550,10.13,73646.0,-4.81,-5.73,-5.65,0,*5B
1517234612.69,54551,10.13,73634.8,-4.83,-5.69,-5.77,0,*50
1517234613.94,54552,10.13,73608.5,-4.83,-5.69,-5.69,0,*5C
1517234615.19,54553,10.13,73620.3,-4.83,-5.77,-5.69,0,*52
1517234616.46,54554,10.13,73638.3,-4.81,-5.65,-5.65,0,*58
1517234617.71,54555,10.13,73620.8,-4.83,-5.77,-5.69,0,*54
1517234618.98,54556,10.13,73616.8,-4.81,-5.73,-5.65,0,*5D
1517234620.25,54557,10.13,73630.8,-4.81,-5.65,-5.65,0,*5B
1517234621.51,54558,10.13,73674.3,-4.81,-5.65,-5.73,0,*53
1517234622.76,54559,10.13,73666.0,-4.83,-5.69,-5.77,0,*58
1517234624.03,54560,10.13,73640.0,-4.81,-5.65,-5.65,0,*5F
1517234625.3,54561,10.13,73608.5,-4.81,-5.65,-5.73,0,*59
1517234626.57,54562,10.13,73644.8,-4.81,-5.65,-5.73,0,*5A
1517234627.81,54563,10.13,73694.8,-4.79,-5.65,-5.73,0,*5C
1517234629.08,54564,10.13,73700.0,-4.81,-5.65,-5.65,0,*5B
1517234630.32,54565,10.13,73682.3,-4.79,-5.65,-5.73,0,*5A
1517234631.57,54566,10.13,73668.3,-4.79,-5.65,-5.65,0,*5E
1517234632.81,54567,10.13,73634.0,-4.79,-5.65,-5.65,0,*5F
1517234634.09,54568,10.13,73598.0,-4.81,-5.65,-5.65,0,*57
1517234635.33,54569,10.13,73642.0,-4.83,-5.69,-5.69,0,*54
1517234636.6,54570,10.13,73720.3,-4.81,-5.73,-5.65,0,*59
1517234637.87,54571,10.13,73730.5,-4.81,-5.65,-5.65,0,*5F
1517234639.12,54572,10.13,73640.5,-4.79,-5.65,-5.61,0,*5F
1517234640.4,54573,10.13,73664.3,-4.81,-5.65,-5.61,0,*59
1517234641.67,54574,10.13,73676.5,-4.81,-5.65,-5.61,0,*5E
1517234642.95,54575,10.13,73670.3,-4.81,-5.65,-5.61,0,*5F
1517234644.17,54576,10.13,73684.5,-4.79,-5.65,-5.55,0,*5C
1517234645.45,54577,10.13,73710.8,-4.81,-5.65,-5.61,0,*5D
1517234646.68,54578,10.13,73718.5,-4.79,-5.65,-5.55,0,*52
1517234647.95,54579,10.13,73722.5,-4.81,-5.65,-5.61,0,*53
1517234649.23,54580,10.13,73696.8,-4.81,-5.61,-5.61,0,*51
1517234650.48,54581,10.13,73666.0,-4.81,-5.55,-5.61,0,*57
1517234651.76,54582,10.13,73670.0,-4.81,-5.61,-5.61,0,*53
1517234653.0,54583,10.13,73676.3,-4.79,-5.61,-5.61,0,*55
1517234654.25,54584,10.13,73690.5,-4.79,-5.61,-5.61,0,*52
1517234655.49,54585,10.13,73710.3,-4.79,-5.61,-5.61,0,*53
1517234656.74,54586,10.13,73706.3,-4.79,-5.61,-5.61,0,*50
1517234658.01,54587,10.13,73700.0,-4.81,-5.61,-5.61,0,*56
1517234659.26,54588,10.13,73654.5,-4.79,-5.61,-5.61,0,*5E
1517234660.51,54589,10.13,73672.3,-4.79,-5.61,-5.61,0,*5F
1517234661.75,54590,10.13,73594.3,-4.79,-5.61,-5.61,0,*57
1517234663.0,54591,10.13,73590.0,-4.79,-5.61,-5.61,0,*56
1517234664.27,54592,10.13,73638.5,-4.81,-5.61,-5.61,0,*52
1517234665.52,54593,10.13,73684.0,-4.79,-5.61,-5.61,0,*54
1517234666.76,54594,10.13,73706.3,-4.79,-5.61,-5.61,0,*53
1517234668.01,54595,10.13,73704.0,-4.79,-5.61,-5.61,0,*52
1517234669.24,54596,10.13,73704.5,-4.77,-5.55,-5.55,0,*5F
1517234670.47,54597,10.13,73728.5,-4.79,-5.61,-5.55,0,*57
1517234671.69,54598,10.13,73728.3,-4.79,-5.61,-5.55,0,*58
1517234672.94,54599,10.13,73722.5,-4.79,-5.61,-5.61,0,*5E
1517234674.19,54600,10.13,73716.5,-4.77,-5.61,-5.55,0,*54
1517234675.44,54601,10.13,73714.0,-4.79,-5.65,-5.61,0,*58
1517234676.69,54602,10.13,73696.8,-4.79,-5.65,-5.61,0,*5B
1517234677.94,54603,10.13,73700.0,-4.77,-5.61,-5.55,0,*57
1517234679.19,54604,10.13,73680.3,-4.77,-5.61,-5.55,0,*50
1517234680.44,54605,10.13,73692.8,-4.77,-5.61,-5.55,0,*51
1517234681.72,54606,10.13,73698.5,-4.77,-5.61,-5.61,0,*55
1517234682.95,54607,10.13,73716.5,-4.73,-5.55,-5.55,0,*50
1517234684.2,54608,10.13,73724.8,-4.77,-5.61,-5.55,0,*5C
1517234685.45,54609,10.13,73722.3,-4.77,-5.61,-5.55,0,*5D
1517234686.71,54610,10.13,73722.8,-4.77,-5.61,-5.55,0,*55
1517234687.94,54611,10.13,73720.5,-4.73,-5.55,-5.51,0,*53
1517234689.21,54612,10.13,73724.0,-4.77,-5.61,-5.61,0,*50
1517234690.44,54613,10.13,73724.8,-4.73,-5.55,-5.55,0,*55
1517234691.72,54614,10.13,73712.3,-4.77,-5.61,-5.61,0,*56
1517234692.99,54615,10.13,73710.0,-4.77,-5.61,-5.61,0,*57
1517234694.27,54616,10.13,73712.5,-4.73,-5.65,-5.61,0,*54
1517234695.55,54617,10.13,73706.5,-4.77,-5.61,-5.61,0,*55
1517234696.82,54618,10.13,73706.5,-4.77,-5.69,-5.61,0,*52
1517234698.1,54619,10.13,73712.8,-4.77,-5.61,-5.69,0,*53
1517234699.37,54620,10.13,73716.3,-4.77,-5.61,-5.61,0,*51
1517234700.62,54621,10.13,73728.3,-4.73,-5.65,-5.55,0,*57
1517234701.9,54622,10.13,73730.0,-4.77,-5.61,-5.61,0,*53
1517234703.17,54623,10.13,73710.5,-4.77,-5.61,-5.61,0,*52
1517234704.43,54624,10.13,73710.3,-4.73,-5.65,-5.55,0,*52
1517234705.68,54625,10.13,73676.5,-4.77,-5.61,-5.55,0,*53
1517234706.95,54626,10.13,73724.8,-4.77,-5.61,-5.61,0,*57
1517234708.23,54627,10.13,73734.0,-4.77,-5.61,-5.61,0,*56
1517234709.51,54628,10.13,73716.0,-4.77,-5.69,-5.61,0,*51
1517234710.74,54629,10.13,73738.8,-4.73,-5.55,-5.55,0,*5C
1517234711.97,54630,10.13,73724.5,-4.73,-5.55,-5.55,0,*54
1517234713.23,54631,10.13,73708.5,-4.73,-5.55,-5.65,0,*56
1517234714.5,54632,10.13,73710.8,-4.77,-5.69,-5.61,0,*5A
1517234715.74,54633,10.13,73712.5,-4.73,-5.55,-5.55,0,*57
1517234717.01,54634,10.13,73718.5,-4.77,-5.69,-5.61,0,*5C
1517234718.29,54635,10.13,73712.3,-4.73,-5.65,-5.65,0,*51
1517234719.54,54636,10.13,73700.8,-4.73,-5.55,-5.65,0,*51
1517234720.79,54637,10.13,73714.3,-4.73,-5.65,-5.55,0,*50
1517234722.06,54638,10.13,73724.3,-4.73,-5.65,-5.65,0,*5C
1517234723.33,54639,10.13,73728.5,-4.73,-5.65,-5.65,0,*5D
1517234724.58,54640,10.13,73740.5,-4.73,-5.65,-5.55,0,*50
1517234725.84,54641,10.13,73722.5,-4.73,-5.65,-5.55,0,*51
1517234727.09,54642,10.13,73718.0,-4.73,-5.69,-5.55,0,*5E
1517234728.36,54643,10.13,73716.5,-4.73,-5.69,-5.65,0,*5C
1517234729.63,54644,10.13,73722.3,-4.73,-5.69,-5.65,0,*5B
1517234730.9,54645,10.13,73722.3,-4.77,-5.73,-5.73,0,*52
1517234732.15,54646,10.13,73716.8,-4.73,-5.69,-5.55,0,*5A
1517234733.42,54647,10.13,73724.8,-4.73,-5.69,-5.65,0,*58
1517234734.69,54648,10.13,73724.8,-4.73,-5.69,-5.65,0,*57
1517234735.97,54649,10.13,73728.8,-4.73,-5.69,-5.65,0,*56
1517234737.22,54650,10.13,73726.0,-4.73,-5.65,-5.55,0,*51
1517234738.49,54651,10.13,73724.3,-4.77,-5.73,-5.69,0,*5C
1517234739.76,54652,10.13,73726.0,-4.77,-5.73,-5.61,0,*57
1517234741.01,54653,10.13,73718.5,-4.73,-5.55,-5.65,0,*52
1517234742.28,54654,10.13,73720.8,-4.73,-5.69,-5.65,0,*5A
1517234743.55,54655,10.13,73698.3,-4.73,-5.69,-5.65,0,*5B
1517234744.82,54656,10.13,73704.3,-4.73,-5.65,-5.69,0,*58
1517234746.09,54657,10.13,73676.0,-4.73,-5.69,-5.77,0,*5A
1517234747.36,54658,10.13,73666.5,-4.73,-5.69,-5.77,0,*55
1517234748.63,54659,10.13,73690.8,-4.73,-5.69,-5.69,0,*5B
1517234749.91,54660,10.13,73702.8,-4.73,-5.77,-5.65,0,*52
1517234751.18,54661,10.13,73688.0,-4.73,-5.77,-5.69,0,*5F
1517234752.45,54662,10.13,73710.0,-4.73,-5.69,-5.65,0,*5F
1517234753.72,54663,10.13,73714.0,-4.73,-5.69,-5.65,0,*5E
1517234754.99,54664,10.13,73680.0,-4.73,-5.69,-5.69,0,*55
1517234756.26,54665,10.13,73692.0,-4.77,-5.73,-5.73,0,*50
1517234757.53,54666,10.13,73672.5,-4.73,-5.69,-5.69,0,*57
1517234758.8,54667,10.13,73668.0,-4.73,-5.77,-5.69,0,*59
1517234760.07,54668,10.13,73668.3,-4.77,-5.81,-5.73,0,*50
1517234761.34,54669,10.13,73644.3,-4.73,-5.77,-5.77,0,*58
1517234762.61,54670,10.13,73608.5,-4.77,-5.73,-5.81,0,*59
1517234763.88,54671,10.13,73626.5,-4.73,-5.69,-5.69,0,*51
1517234765.16,54672,10.13,73648.3,-4.77,-5.81,-5.81,0,*56
1517234766.43,54673,10.13,73660.8,-4.73,-5.81,-5.69,0,*55
1517234767.7,54674,10.13,73672.0,-4.77,-5.81,-5.81,0,*50
1517234768.97,54675,10.13,73690.8,-4.73,-5.77,-5.77,0,*55
1517234770.25,54676,10.13,73680.5,-4.77,-5.85,-5.81,0,*56
1517234771.53,54677,10.13,73674.0,-4.77,-5.81,-5.81,0,*53
1517234772.8,54678,10.13,73690.8,-4.77,-5.81,-5.81,0,*5C
1517234774.07,54679,10.13,73710.3,-4.73,-5.77,-5.69,0,*56
1517234775.35,54680,10.13,73706.5,-4.77,-5.81,-5.81,0,*5B
1517234776.62,54681,10.13,73696.5,-4.73,-5.77,-5.77,0,*5E
1517234777.89,54682,10.13,73684.3,-4.73,-5.81,-5.69,0,*5B
1517234779.17,54683,10.13,73676.0,-4.77,-5.81,-5.81,0,*58
1517234780.44,54684,10.13,73666.0,-4.77,-5.81,-5.73,0,*52
1517234781.71,54685,10.13,73672.8,-4.73,-5.77,-5.69,0,*55
1517234782.97,54686,10.13,73690.8,-4.77,-5.73,-5.73,0,*5D
1517234784.24,54687,10.13,73690.5,-4.77,-5.73,-5.73,0,*5C
1517234785.51,54688,10.13,73696.0,-4.77,-5.81,-5.81,0,*53
1517234786.79,54689,10.13,73722.5,-4.77,-5.73,-5.61,0,*51
1517234788.07,54690,10.13,73696.3,-4.77,-5.69,-5.61,0,*52
1517234789.34,54691,10.13,73712.5,-4.73,-5.65,-5.65,0,*5F
1517234790.61,54692,10.13,73702.3,-4.73,-5.65,-5.65,0,*5C
1517234791.89,54693,10.13,73674.5,-4.77,-5.69,-5.61,0,*51
1517234793.16,54694,10.13,73678.5,-4.77,-5.69,-5.69,0,*5E
1517234794.44,54695,10.13,73702.0,-4.73,-5.65,-5.61,0,*5F
1517234795.69,54696,10.13,73720.0,-4.73,-5.55,-5.65,0,*5B
1517234796.96,54697,10.13,73708.0,-4.73,-5.65,-5.65,0,*59
1517234798.19,54698,10.13,73704.3,-4.73,-5.55,-5.55,0,*56
1517234799.42,54699,10.13,73708.8,-4.73,-5.55,-5.55,0,*57
1517234800.68,54700,10.13,73718.5,-4.73,-5.65,-5.55,0,*55
1517234801.91,54701,10.13,73710.3,-4.73,-5.55,-5.55,0,*57
1517234803.18,54702,10.13,73680.3,-4.73,-5.65,-5.65,0,*54
1517234804.43,54703,10.13,73684.5,-4.73,-5.65,-5.55,0,*56
1517234805.68,54704,10.13,73678.3,-4.73,-5.55,-5.65,0,*51
1517234806.95,54705,10.13,73678.8,-4.73,-5.65,-5.65,0,*53
1517234808.21,54706,10.13,73684.0,-4.73,-5.69,-5.55,0,*5F
1517234809.48,54707,10.13,73692.0,-4.77,-5.69,-5.69,0,*55
1517234810.72,54708,10.13,73692.5,-4.73,-5.55,-5.55,0,*5E
1517234811.99,54709,10.13,73690.8,-4.73,-5.65,-5.69,0,*53
1517234813.22,54710,10.13,73686.8,-4.73,-5.55,-5.55,0,*57
1517234814.44,54711,10.13,73680.3,-4.71,-5.65,-5.55,0,*57
1517234815.68,54712,10.13,73682.0,-4.71,-5.65,-5.65,0,*57
1517234816.92,54713,10.13,73680.5,-4.71,-5.65,-5.65,0,*56
1517234818.15,54714,10.13,73656.3,-4.71,-5.65,-5.55,0,*52
1517234819.35,54715,10.13,73666.3,-4.71,-5.55,-5.55,0,*50
1517234820.57,54716,10.13,73664.8,-4.71,-5.65,-5.55,0,*50
1517234821.77,54717,10.13,73652.0,-4.71,-5.55,-5.55,0,*52
1517234822.99,54718,10.13,73674.8,-4.71,-5.61,-5.55,0,*5A
1517234824.21,54719,10.13,73672.8,-4.71,-5.65,-5.55,0,*5F
1517234825.42,54720,10.13,73670.8,-4.71,-5.55,-5.55,0,*56
1517234826.62,54721,10.13,73654.3,-4.71,-5.55,-5.55,0,*57
1517234827.85,54722,10.13,73646.8,-4.73,-5.55,-5.55,0,*56
1517234829.05,54723,10.13,73658.5,-4.71,-5.55,-5.55,0,*55
1517234830.25,54724,10.13,73658.0,-4.71,-5.55,-5.55,0,*52
1517234831.48,54725,10.13,73660.0,-4.71,-5.65,-5.55,0,*50
1517234832.7,54726,10.13,73674.8,-4.69,-5.51,-5.51,0,*59
1517234833.92,54727,10.13,73686.0,-4.71,-5.65,-5.55,0,*52
1517234835.12,54728,10.13,73674.3,-4.71,-5.55,-5.55,0,*5E
1517234836.35,54729,10.13,73676.3,-4.69,-5.51,-5.51,0,*56
1517234837.57,54730,10.13,73706.5,-4.71,-5.65,-5.55,0,*54
1517234838.81,54731,10.13,73684.0,-4.71,-5.65,-5.65,0,*56
1517234840.03,54732,10.13,73684.5,-4.71,-5.69,-5.55,0,*5A
1517234841.25,54733,10.13,73688.8,-4.71,-5.65,-5.55,0,*57
1517234842.5,54734,10.13,73684.0,-4.71,-5.69,-5.69,0,*53
1517234843.74,54735,10.13,73686.8,-4.71,-5.65,-5.65,0,*52
1517234844.98,54736,10.13,73690.8,-4.71,-5.65,-5.65,0,*51
1517234846.22,54737,10.13,73682.3,-4.71,-5.65,-5.65,0,*50
1517234847.44,54738,10.13,73670.0,-4.71,-5.65,-5.55,0,*5C
1517234848.66,54739,10.13,73654.8,-4.71,-5.55,-5.65,0,*5D
1517234849.93,54740,10.13,73664.0,-4.69,-5.65,-5.61,0,*5D
1517234851.18,54741,10.13,73678.3,-4.71,-5.65,-5.65,0,*51
1517234852.42,54742,10.13,73686.3,-4.69,-5.61,-5.51,0,*58
1517234853.69,54743,10.13,73676.0,-4.69,-5.61,-5.61,0,*5A
1517234854.96,54744,10.13,73666.8,-4.69,-5.65,-5.65,0,*5D
1517234856.22,54745,10.13,73658.5,-4.69,-5.73,-5.65,0,*5B
1517234857.46,54746,10.13,73672.5,-4.71,-5.69,-5.69,0,*56
1517234858.7,54747,10.13,73672.8,-4.69,-5.77,-5.51,0,*5A
1517234859.98,54748,10.13,73682.5,-4.69,-5.65,-5.61,0,*55
1517234861.25,54749,10.13,73682.3,-4.69,-5.65,-5.69,0,*5C
1517234862.51,54750,10.13,73672.5,-4.69,-5.61,-5.65,0,*5C
1517234863.73,54751,10.13,73692.0,-4.71,-5.69,-5.55,0,*5F
1517234865.0,54752,10.13,73680.5,-4.69,-5.73,-5.61,0,*59
1517234866.26,54753,10.13,73660.0,-4.69,-5.73,-5.61,0,*58
1517234867.54,54754,10.13,73664.0,-4.69,-5.65,-5.61,0,*58
1517234868.76,54755,10.13,73654.3,-4.71,-5.65,-5.55,0,*57
1517234869.98,54756,10.13,73646.8,-4.71,-5.55,-5.65,0,*54
1517234871.22,54757,10.13,73636.5,-4.69,-5.61,-5.51,0,*5C
1517234872.46,54758,10.13,73644.0,-4.69,-5.61,-5.51,0,*53
1517234873.71,54759,10.13,73636.3,-4.69,-5.61,-5.51,0,*52
1517234874.98,54760,10.13,73584.5,-4.69,-5.61,-5.61,0,*5B
1517234876.25,54761,10.13,73604.8,-4.69,-5.61,-5.61,0,*5A
1517234877.49,54762,10.13,73646.0,-4.69,-5.61,-5.51,0,*5A
1517234878.73,54763,10.13,73670.8,-4.69,-5.61,-5.51,0,*5B
1517234879.98,54764,10.13,73706.5,-4.69,-5.51,-5.61,0,*5C
1517234881.23,54765,10.13,73660.0,-4.69,-5.51,-5.61,0,*5D
1517234882.47,54766,10.13,73654.8,-4.69,-5.61,-5.51,0,*5E
1517234883.74,54767,10.13,73704.5,-4.69,-5.61,-5.61,0,*5C
1517234884.96,54768,10.13,73690.8,-4.69,-5.51,-5.51,0,*53
1517234886.19,54769,10.13,73670.3,-4.69,-5.51,-5.51,0,*52
1517234887.43,54770,10.13,73660.3,-4.69,-5.61,-5.51,0,*59
1517234888.65,54771,10.13,73670.8,-4.69,-5.51,-5.51,0,*5B
1517234889.87,54772,10.13,73662.0,-4.69,-5.51,-5.51,0,*58
1517234891.12,54773,10.13,73648.5,-4.69,-5.61,-5.51,0,*5A
1517234892.34,54774,10.13,73636.8,-4.69,-5.51,-5.51,0,*5E
1517234893.58,54775,10.13,73654.5,-4.69,-5.61,-5.51,0,*5C
1517234894.83,54776,10.13,73672.8,-4.67,-5.51,-5.61,0,*51
1517234896.11,54777,10.13,73660.3,-4.67,-5.61,-5.61,0,*53
1517234897.33,54778,10.13,73658.5,-4.67,-5.51,-5.51,0,*5C
1517234898.61,54779,10.13,73634.0,-4.67,-5.61,-5.61,0,*5D
1517234899.84,54780,10.13,73630.5,-4.67,-5.51,-5.51,0,*5B
1517234901.08,54781,10.13,73628.5,-4.67,-5.61,-5.51,0,*59
1517234902.36,54782,10.13,73630.0,-4.67,-5.65,-5.61,0,*5D
1517234903.61,54783,10.13,73646.5,-4.67,-5.61,-5.51,0,*5B
1517234904.88,54784,10.13,73646.5,-4.67,-5.65,-5.65,0,*5F
1517234906.16,54785,10.13,73640.8,-4.67,-5.65,-5.61,0,*5A
1517234907.43,54786,10.13,73666.8,-4.69,-5.65,-5.61,0,*57
1517234908.7,54787,10.13,73674.8,-4.69,-5.65,-5.61,0,*56
1517234909.97,54788,10.13,73666.5,-4.67,-5.65,-5.65,0,*53
1517234911.22,54789,10.13,73650.8,-4.65,-5.61,-5.69,0,*58
1517234912.49,54790,10.13,73638.8,-4.67,-5.65,-5.65,0,*5A
1517234913.76,54791,10.13,73616.8,-4.67,-5.73,-5.65,0,*5C
1517234915.03,54792,10.13,73596.5,-4.67,-5.77,-5.61,0,*5F
1517234916.3,54793,10.13,73610.3,-4.67,-5.73,-5.65,0,*5E
1517234917.54,54794,10.13,73642.5,-4.65,-5.61,-5.61,0,*5C
1517234918.82,54795,10.13,73630.5,-4.67,-5.65,-5.65,0,*5F